Temperature
-1 -1 -1 -1 -1 -1 -1 -0 0 1 0 2 2 1 2 2 2 3 3 3 3 3 3 3 2 2 2 2 1 1 1 1 1 1 1 0 0 -0 -0 -0 -0 -0 -0 -0
-1 -1 -2 -1 -1 -1 -1 -1 -1 -0 0 1 1 1 1 2 2 2 3 3 3 3 3 2 2 2 2 2 1 1 1 1 1 0 0 -0 -0 -0 -1 -1 -1 -1 -1 -1
-1 -2 -1 -0 -1 -1 -2 -2 -1 0 1 0 -0 -0 1 2 2 2 2 2 3 2 2 2 2 2 2 1 1 1 1 0 0 -0 -0 -0 -1 -1 -1 -1 -1 -1 -1 -1
-2 -1 0 1 -1 -1 -1 -2 -2 -1 -1 -1 -0 1 1 2 2 2 2 2 2 2 2 2 2 1 1 1 1 1 0 0 -0 -0 -1 -1 -1 -1 -1 -1 -1 -1 -2 -2
-3 -2 -1 -0 -1 -2 -2 -1 -2 -2 -2 -1 -1 -1 1 2 2 2 2 2 2 2 1 1 1 1 1 1 1 0 0 -0 -0 -1 -1 -1 -1 -1 -2 -2 -2 -2 -2 -2
-3 -1 -1 1 -1 -2 -1 -1 -1 -2 -2 -2 -2 -2 -0 2 2 2 1 1 1 1 1 1 1 1 1 1 0 0 -0 -0 -1 -1 -1 -1 -2 -2 -2 -2 -2 -2 -2 -2
-3 -3 -2 -1 -2 -1 -0 0 -0 -1 -1 -2 -2 -1 1 1 1 1 1 1 1 1 1 1 1 0 0 0 0 -0 -0 -1 -1 -1 -2 -2 -2 -2 -2 -2 -3 -3 -3 -3
-4 -3 -1 -2 -3 -2 -0 0 0 0 0 -0 -0 0 0 0 0 0 0 0 0 0 0 0 0 0 0 -0 -0 -1 -1 -1 -2 -2 -2 -2 -2 -2 -3 -3 -3 -3 -3 -3
-3 -1 -1 -2 -1 0 0 0 1 1 1 0 -0 0 0 0 0 -0 -0 -0 -0 -0 -0 -0 -0 -0 -0 -1 -1 -1 -1 -2 -2 -2 -2 -2 -3 -3 -3 -3 -3 -4 -4 -4
-5 -4 -3 -1 -0 0 0 1 1 1 0 0 -0 -0 -0 -0 -0 -0 -0 -1 -1 -1 -1 -1 -1 -1 -1 -1 -1 -1 -2 -2 -2 -2 -2 -3 -3 -3 -4 -4 -4 -4 -4 -4
-5 -4 -3 -1 0 1 1 0 0 0 0 -0 -0 -0 -0 -1 -1 -1 -1 -1 -1 -1 -1 -1 -1 -1 -1 -2 -2 -2 -2 -2 -3 -3 -3 -3 -3 -3 -4 -4 -4 -4 -5 -5
-3 -2 -3 -1 1 1 0 0 0 -0 -0 -0 -1 -1 -1 -1 -1 -1 -1 -1 -2 -2 -2 -2 -2 -2 -2 -2 -2 -2 -2 -2 -3 -3 -3 -3 -4 -4 -4 -4 -4 -5 -5 -5
-0 -0 -0 0 0 0 0 -0 -0 -0 -1 -1 -1 -1 -1 -1 -1 -2 -2 -2 -2 -2 -2 -2 -2 -2 -2 -2 -2 -3 -3 -3 -3 -3 -4 -4 -4 -4 -4 -4 -4 -5 -5 -5
-0 -1 -1 -0 -0 -0 -0 -1 -1 -1 -1 -1 -1 -1 -1 -2 -2 -2 -2 -2 -2 -2 -2 -2 -2 -2 -2 -3 -3 -3 -3 -3 -3 -4 -4 -4 -4 -4 -4 -4 -5 -5 -5 -5
-1 -1 -1 -1 -1 -1 -1 -1 -1 -1 -1 -1 -1 -2 -2 -2 -2 -2 -3 -3 -3 -3 -3 -3 -3 -3 -3 -3 -3 -3 -3 -3 -4 -4 -4 -4 -4 -5 -5 -5 -5 -5 -5 -5
-1 -1 -1 -1 -1 -1 -1 -1 -1 -1 -1 -1 -2 -2 -2 -2 -2 -3 -3 -3 -3 -3 -3 -3 -3 -3 -3 -3 -3 -3 -4 -4 -4 -4 -4 -4 -5 -5 -5 -5 -5 -5 -5 -5
-2 -2 -2 -2 -2 -2 -2 -2 -2 -2 -2 -2 -2 -2 -2 -3 -3 -3 -3 -3 -3 -3 -3 -3 -3 -3 -3 -3 -3 -4 -4 -4 -4 -4 -5 -5 -5 -5 -5 -5 -5 -6 -6 -6
-1 -1 -2 -2 -2 -2 -2 -2 -2 -2 -2 -2 -2 -2 -3 -3 -3 -3 -3 -3 -3 -3 -3 -3 -3 -3 -3 -4 -4 -4 -4 -4 -5 -5 -5 -5 -5 -5 -6 -6 -6 -6 -6 -6
-1 -2 -2 -2 -2 -2 -2 -2 -2 -2 -2 -2 -2 -3 -3 -3 -3 -3 -3 -3 -3 -3 -3 -3 -4 -3 -3 -4 -4 -4 -4 -4 -5 -5 -5 -5 -5 -6 -6 -6 -6 -6 -6 -6
-2 -2 -2 -2 -2 -3 -3 -3 -3 -3 -3 -3 -3 -3 -3 -3 -3 -3 -3 -3 -3 -3 -3 -4 -4 -4 -4 -4 -4 -4 -4 -4 -5 -5 -5 -5 -6 -6 -6 -6 -6 -6 -6 -6
-2 -2 -2 -2 -2 -3 -3 -3 -3 -3 -3 -3 -3 -3 -3 -3 -3 -3 -3 -3 -3 -4 -4 -4 -4 -4 -4 -4 -4 -4 -5 -5 -5 -5 -5 -5 -6 -6 -6 -6 -6 -6 -6 -6
-2 -3 -3 -3 -3 -3 -3 -3 -3 -3 -3 -3 -3 -3 -3 -3 -3 -4 -4 -4 -4 -4 -4 -4 -4 -4 -4 -4 -5 -5 -5 -5 -5 -5 -5 -5 -6 -6 -6 -6 -6 -6 -6 -6
-3 -3 -3 -3 -3 -3 -3 -3 -3 -3 -3 -3 -4 -4 -4 -4 -4 -4 -4 -4 -4 -4 -4 -4 -4 -4 -5 -5 -5 -5 -5 -5 -5 -5 -5 -5 -5 -6 -6 -6 -6 -6 -6 -6
-3 -3 -3 -3 -4 -4 -4 -4 -4 -4 -4 -4 -4 -4 -4 -4 -4 -4 -4 -4 -4 -4 -4 -4 -5 -5 -5 -5 -5 -5 -5 -5 -5 -5 -5 -5 -6 -6 -6 -6 -6 -6 -6 -6
-3 -3 -3 -4 -4 -4 -4 -4 -4 -4 -4 -4 -4 -4 -4 -4 -4 -4 -4 -4 -4 -4 -5 -5 -5 -5 -5 -5 -5 -5 -5 -5 -6 -6 -6 -5 -6 -6 -6 -6 -6 -6 -6 -6
-3 -3 -4 -4 -4 -4 -4 -4 -4 -4 -5 -5 -5 -4 -4 -4 -4 -4 -4 -5 -5 -5 -5 -5 -5 -5 -5 -5 -5 -5 -5 -6 -6 -6 -6 -6 -6 -6 -6 -6 -6 -6 -6 -6
-4 -4 -4 -4 -4 -4 -5 -5 -5 -5 -5 -5 -5 -5 -5 -5 -5 -5 -5 -5 -5 -5 -5 -5 -5 -5 -5 -5 -6 -6 -6 -6 -6 -6 -6 -6 -6 -6 -6 -6 -6 -6 -6 -6
Wind_Speed
4 2 3 5 7 8 11 10 10 10 11 12 8 6 6 5 4 4 4 4 4 4 4 4 4 3 3 3 3 3 3 3 4 3 3 3 3 3 3 3 4 3 4 4
3 2 3 7 9 11 11 9 11 11 14 10 6 4 5 6 5 6 6 6 5 5 5 5 5 4 4 4 3 3 4 4 3 3 3 3 3 3 3 3 3 3 4 4
3 2 2 8 9 11 8 9 10 14 14 5 5 7 7 7 7 7 8 7 6 6 6 6 5 5 5 5 3 3 4 4 4 4 4 4 3 3 3 3 3 3 4 4
1 1 7 7 2 7 8 9 10 9 8 6 8 7 7 7 7 8 8 7 6 6 6 5 4 4 4 3 3 4 4 4 4 4 4 3 3 3 3 3 3 4 4 4
3 3 8 7 3 5 6 8 8 11 10 7 4 4 6 6 6 7 7 7 6 6 5 4 4 4 3 3 4 4 5 5 4 4 4 3 4 4 3 3 3 3 4 4
3 3 6 6 2 3 3 6 5 7 8 6 2 3 6 4 3 5 6 5 5 4 4 4 4 4 4 4 4 5 5 5 4 4 4 4 4 3 2 2 3 3 3 3
5 5 8 6 2 4 3 6 3 4 5 5 6 7 5 4 4 4 5 5 4 3 4 4 4 4 5 5 6 5 4 4 4 4 4 4 3 2 2 2 2 2 3 3
5 5 9 3 6 7 7 3 2 3 4 6 7 6 6 6 6 5 5 4 3 3 4 3 3 4 5 6 5 3 3 3 3 3 3 2 2 2 2 2 2 2 2 3
9 9 4 5 6 5 3 4 4 4 5 4 5 6 6 6 6 5 5 5 3 3 4 3 3 4 5 4 2 2 2 3 2 2 2 2 2 2 2 2 2 2 2 3
5 8 7 7 7 6 5 6 6 5 5 4 6 6 6 6 6 5 4 4 3 2 3 3 3 3 4 3 2 2 3 2 2 2 2 2 2 2 2 2 2 2 2 3
6 8 7 7 8 9 7 6 6 5 5 6 6 7 6 6 6 5 5 4 3 3 4 4 3 2 2 2 2 2 2 2 2 2 2 2 2 2 3 3 3 3 3 3
9 8 6 7 5 5 6 7 7 7 6 6 6 7 6 6 6 5 5 4 3 3 4 4 3 3 2 2 3 3 2 2 2 2 2 1 1 1 2 3 4 4 4 4
7 5 6 7 6 5 6 7 7 7 7 7 6 6 6 5 5 4 5 4 5 5 4 3 3 3 2 2 3 4 3 3 2 2 2 2 1 1 1 2 3 3 3 4
7 4 5 6 6 6 5 5 4 5 5 6 6 5 4 5 4 5 6 5 4 4 3 3 3 4 3 2 3 3 3 3 3 2 2 2 2 1 1 1 2 3 3 4
8 7 7 5 5 4 3 3 4 5 5 5 4 4 4 5 6 6 5 4 3 3 4 3 4 4 2 2 3 3 3 2 2 2 2 2 1 1 1 1 1 2 2 3
5 5 6 6 7 6 4 4 5 6 6 5 5 5 5 5 5 4 4 3 3 4 4 4 5 4 3 3 3 2 2 3 2 2 2 2 1 1 1 1 1 1 2 2
4 5 5 6 7 7 6 6 7 7 6 6 6 4 3 3 3 4 3 3 4 4 4 4 4 3 3 3 3 2 2 3 3 2 2 2 2 1 1 1 1 1 2 3
7 7 6 6 6 6 7 6 6 6 6 5 4 3 3 4 4 4 3 2 2 3 3 4 3 3 3 3 3 3 3 3 2 2 2 2 1 1 1 1 1 2 2 3
5 5 5 5 5 5 5 5 5 5 4 4 4 4 4 4 4 3 2 2 3 4 3 3 3 3 3 4 3 3 3 3 2 2 2 2 1 1 1 1 1 2 2 2
3 3 3 4 3 3 4 4 4 4 4 3 4 3 4 4 3 3 3 3 4 3 3 3 2 2 3 4 4 3 3 3 3 2 2 2 2 1 1 1 1 1 2 2
3 3 3 3 3 3 4 3 3 4 3 3 4 4 4 3 2 3 3 3 3 2 3 3 2 2 3 4 4 3 3 3 3 3 2 2 2 1 1 1 1 2 2 2
3 3 3 3 3 4 3 3 3 3 2 3 3 3 2 2 2 2 3 3 2 2 2 2 2 3 4 4 3 3 3 3 3 2 2 2 2 2 2 1 1 2 2 2
3 3 3 3 3 3 3 3 2 2 2 3 3 3 3 3 2 2 2 2 2 2 1 2 3 4 5 4 3 3 3 3 3 2 2 2 2 2 2 2 2 2 2 2
3 3 3 2 1 2 3 3 2 2 2 2 2 2 2 2 2 2 2 2 2 2 1 2 4 5 5 3 3 3 3 2 2 2 2 2 2 2 2 2 2 2 2 2
3 2 2 1 2 2 3 2 1 1 1 1 1 1 1 2 2 2 1 2 2 2 1 2 4 4 3 2 3 3 2 2 2 2 2 2 2 2 2 2 2 2 2 2
2 2 2 3 2 2 2 1 1 1 1 1 1 1 0 0 0 1 1 1 2 2 2 1 2 2 2 2 2 2 2 2 2 2 2 2 2 2 2 2 2 2 2 2
1 1 1 2 2 1 1 1 2 2 1 1 1 1 0 0 1 1 1 1 1 1 1 1 1 2 2 2 2 2 1 1 2 2 2 2 2 2 2 2 2 2 2 2
Wind_Direction
246 252 211 229 221 203 209 213 221 242 243 256 258 257 262 265 271 269 268 266 258 250 244 241 242 236 225 229 224 217 216 223 231 233 230 234 244 251 254 253 255 254 261 263
262 246 242 262 244 223 228 230 237 256 264 257 255 248 256 257 258 261 261 262 259 255 248 242 236 234 231 229 228 216 219 229 231 230 231 235 240 244 247 254 258 260 260 263
247 276 310 268 233 210 213 214 206 235 252 255 250 248 246 247 246 252 261 265 259 252 248 243 234 226 224 225 226 220 225 229 224 219 226 233 237 241 248 255 257 262 262 264
182 80 243 251 206 193 214 239 223 239 257 246 246 258 256 241 237 252 259 257 255 252 252 250 234 227 222 219 219 222 228 229 224 219 227 233 232 240 253 257 252 261 266 266
155 230 273 288 237 182 201 264 228 233 254 263 276 302 282 246 230 239 244 247 246 244 246 243 234 222 211 220 220 224 230 229 225 218 225 230 235 244 253 256 265 266 264 261
162 203 244 257 241 188 132 283 252 216 238 248 189 264 270 265 254 251 252 255 253 248 243 240 236 206 201 219 221 229 231 231 225 217 219 228 236 245 255 254 266 272 277 272
194 228 262 254 192 132 172 251 276 211 225 211 212 233 269 291 280 269 266 264 258 246 245 243 224 196 212 221 228 233 231 228 225 217 218 227 235 238 236 256 273 281 286 285
175 213 251 205 145 188 223 262 241 229 227 228 247 270 283 285 283 286 283 276 262 251 256 251 213 198 220 232 234 222 214 219 225 222 220 218 209 231 230 235 255 276 288 297
197 219 248 187 207 233 243 254 255 249 254 242 259 271 279 281 281 281 276 273 262 246 256 255 221 205 223 240 220 200 203 216 223 227 217 209 201 210 224 228 243 272 280 292
244 259 256 249 253 260 248 249 264 258 255 241 252 264 273 277 282 282 277 270 262 249 253 260 244 229 227 232 203 189 203 218 218 211 211 209 208 207 215 228 243 263 275 287
248 269 286 266 242 248 255 258 266 264 251 245 247 261 261 268 272 272 274 269 252 241 246 254 254 247 234 209 185 196 209 214 216 211 202 204 220 227 229 233 236 246 254 264
231 231 220 254 255 241 244 252 255 262 269 255 241 252 258 260 262 262 263 260 256 249 249 253 250 249 234 207 188 186 203 210 205 193 194 200 220 301 290 272 284 290 291 297
233 242 237 261 267 242 243 254 257 251 254 262 257 247 250 259 262 261 261 255 250 246 245 243 244 247 240 212 197 196 204 210 202 191 191 198 204 217 304 330 323 321 317 314
237 243 262 256 259 259 253 258 258 259 259 254 254 251 247 255 261 259 259 255 249 241 235 232 236 245 237 209 205 206 205 208 196 188 188 194 200 208 219 271 315 324 321 322
241 229 239 259 269 273 268 262 262 267 269 266 254 248 246 249 257 261 260 254 240 227 227 226 234 245 228 202 202 200 193 186 181 176 180 186 191 197 214 264 291 310 324 327
250 249 247 253 258 264 263 253 253 261 263 263 261 257 253 252 258 263 258 234 218 229 229 226 237 240 213 195 190 187 187 184 168 167 168 170 177 180 200 246 279 296 303 310
230 251 250 259 260 261 257 252 249 255 256 254 255 257 257 257 264 266 263 246 237 241 235 228 237 229 204 191 180 179 173 177 169 158 167 178 182 187 201 226 255 283 292 301
231 238 239 241 248 255 261 259 254 252 251 251 249 242 240 242 252 259 259 255 257 261 248 235 227 208 199 188 177 170 168 170 166 167 172 180 181 186 196 224 256 280 300 300
241 246 252 251 245 241 248 255 256 253 255 245 231 235 242 247 248 248 235 224 235 254 258 232 220 195 189 184 166 162 160 159 159 163 169 186 184 185 197 223 251 270 284 300
257 256 260 266 262 247 250 257 259 258 252 231 225 235 247 250 239 226 220 234 237 237 235 224 204 189 182 175 160 158 162 163 165 166 172 184 189 198 210 230 248 263 280 290
275 272 270 270 276 271 260 255 252 256 251 222 219 230 240 248 229 206 207 247 260 225 218 212 189 183 177 168 161 157 162 164 169 175 183 187 192 204 217 233 250 261 272 285
267 267 272 274 277 285 288 270 253 252 245 233 231 225 224 232 221 218 228 229 237 227 207 197 187 185 174 159 155 157 161 165 170 172 180 188 194 207 220 230 244 260 272 281
267 266 268 268 265 275 289 278 255 241 238 237 232 225 223 225 211 205 244 237 219 219 202 201 199 180 163 147 151 158 163 168 174 180 189 196 203 211 219 227 242 253 264 280
280 277 273 271 259 265 278 283 271 252 246 251 242 229 216 223 240 232 230 233 225 203 196 204 183 170 153 144 151 159 169 175 179 184 189 194 200 211 222 230 244 251 257 267
276 277 270 251 248 257 258 269 275 257 249 262 266 255 229 217 223 236 216 208 203 172 166 180 166 156 146 152 159 166 172 180 178 177 187 193 203 213 224 231 240 248 254 264
276 271 263 252 248 254 250 239 244 245 227 252 286 289 308 359 132 172 171 175 172 150 141 151 161 152 145 156 161 166 169 180 189 192 195 202 210 216 225 236 245 248 252 259
293 290 295 301 289 258 242 233 232 235 219 216 248 268 207 90 104 119 126 134 141 140 137 134 135 142 147 153 158 163 171 180 186 191 195 204 211 220 226 230 242 250 256 261
Height
1488 1488 1489 1488 1487 1490 1490 1487 1487 1479 1478 1468 1467 1466 1465 1465 1464 1464 1464 1464 1464 1464 1464 1464 1464 1465 1465 1465 1466 1466 1466 1466 1466 1467 1467 1467 1467 1467 1466 1466 1466 1465 1465 1464
1488 1487 1488 1486 1482 1484 1484 1483 1481 1477 1471 1463 1464 1463 1463 1462 1462 1461 1461 1461 1461 1461 1461 1461 1461 1461 1461 1462 1462 1462 1462 1462 1462 1463 1463 1463 1463 1463 1462 1462 1462 1461 1460 1460
1485 1488 1485 1480 1473 1475 1476 1473 1473 1470 1461 1460 1461 1460 1459 1458 1459 1458 1458 1458 1458 1458 1458 1458 1458 1458 1458 1458 1458 1458 1458 1458 1458 1458 1458 1459 1459 1458 1458 1458 1457 1457 1456 1455
1488 1488 1483 1466 1465 1465 1467 1465 1465 1461 1458 1457 1457 1456 1455 1455 1455 1454 1454 1454 1454 1454 1454 1455 1455 1454 1455 1455 1454 1454 1454 1454 1454 1454 1454 1454 1454 1454 1454 1454 1453 1453 1452 1451
1490 1487 1477 1465 1463 1464 1465 1461 1457 1457 1454 1454 1454 1454 1451 1451 1451 1451 1451 1451 1451 1451 1451 1451 1450 1450 1450 1450 1450 1450 1449 1449 1450 1450 1450 1450 1450 1450 1450 1450 1449 1448 1448 1447
1489 1484 1476 1461 1459 1458 1461 1460 1451 1451 1451 1452 1453 1455 1449 1447 1448 1447 1447 1447 1446 1446 1446 1446 1446 1446 1446 1445 1445 1445 1445 1446 1446 1446 1446 1446 1447 1447 1447 1446 1445 1445 1444 1443
1484 1483 1470 1458 1457 1459 1463 1455 1448 1447 1448 1449 1449 1448 1446 1445 1444 1444 1443 1442 1442 1442 1442 1442 1442 1442 1441 1441 1441 1442 1442 1442 1442 1442 1443 1443 1443 1443 1443 1443 1442 1441 1440 1440
1481 1480 1468 1454 1456 1457 1451 1447 1446 1445 1445 1445 1444 1443 1443 1442 1441 1440 1439 1438 1438 1437 1437 1438 1438 1437 1437 1437 1438 1438 1438 1438 1439 1439 1439 1440 1440 1440 1440 1439 1438 1437 1437 1436
1465 1459 1451 1449 1448 1447 1446 1445 1444 1443 1443 1443 1441 1440 1440 1439 1438 1437 1436 1435 1434 1434 1433 1434 1434 1434 1434 1434 1434 1434 1434 1435 1435 1435 1436 1436 1436 1436 1436 1436 1435 1434 1433 1432
1459 1450 1446 1445 1445 1444 1444 1443 1442 1441 1441 1440 1439 1438 1437 1436 1435 1433 1432 1431 1430 1430 1429 1430 1430 1430 1431 1431 1431 1431 1431 1431 1431 1432 1432 1433 1433 1433 1433 1432 1432 1431 1430 1430
1454 1446 1443 1440 1440 1440 1440 1439 1439 1438 1437 1437 1436 1435 1434 1432 1431 1430 1429 1428 1427 1427 1426 1426 1427 1427 1428 1428 1428 1427 1427 1428 1428 1429 1429 1429 1430 1430 1430 1430 1430 1429 1428 1428
1444 1439 1439 1436 1436 1436 1436 1435 1435 1434 1433 1432 1432 1431 1430 1428 1428 1427 1426 1425 1424 1424 1424 1424 1424 1424 1424 1425 1425 1424 1424 1425 1426 1426 1426 1427 1427 1427 1428 1428 1428 1427 1427 1426
1434 1434 1433 1432 1432 1432 1432 1431 1431 1430 1429 1428 1428 1427 1426 1425 1424 1423 1422 1421 1421 1421 1421 1421 1421 1421 1422 1422 1422 1422 1422 1423 1423 1424 1424 1424 1424 1424 1424 1425 1425 1424 1424 1423
1430 1431 1429 1428 1428 1428 1428 1427 1426 1426 1425 1424 1423 1423 1422 1421 1420 1419 1418 1418 1418 1418 1418 1418 1418 1418 1419 1419 1419 1420 1420 1421 1421 1421 1422 1422 1422 1422 1422 1422 1422 1421 1421 1421
1426 1426 1425 1424 1424 1424 1423 1423 1422 1421 1421 1420 1420 1419 1418 1417 1416 1415 1415 1414 1414 1414 1414 1415 1415 1416 1416 1416 1416 1417 1417 1418 1419 1419 1420 1420 1420 1420 1420 1420 1420 1419 1418 1418
1421 1421 1421 1420 1420 1419 1419 1418 1418 1417 1417 1416 1416 1415 1414 1414 1413 1412 1411 1411 1411 1410 1411 1412 1412 1413 1413 1414 1414 1415 1415 1416 1417 1417 1417 1417 1417 1417 1418 1418 1417 1417 1416 1416
1417 1416 1415 1415 1415 1415 1415 1414 1414 1413 1413 1413 1412 1412 1411 1410 1409 1408 1408 1408 1408 1408 1408 1409 1409 1410 1411 1411 1412 1413 1413 1414 1414 1415 1415 1415 1415 1416 1416 1416 1416 1415 1415 1415
1413 1412 1412 1411 1411 1410 1410 1410 1410 1410 1410 1409 1409 1408 1407 1407 1406 1405 1405 1405 1405 1405 1406 1406 1407 1408 1409 1409 1410 1411 1411 1412 1412 1413 1413 1413 1414 1414 1414 1414 1414 1414 1413 1413
1408 1408 1408 1408 1407 1407 1407 1407 1406 1406 1406 1406 1405 1405 1404 1404 1403 1403 1403 1402 1402 1402 1403 1404 1405 1406 1406 1407 1408 1409 1409 1410 1411 1411 1412 1412 1412 1413 1413 1413 1413 1412 1412 1411
1405 1405 1405 1405 1405 1404 1404 1403 1403 1403 1403 1403 1402 1402 1401 1401 1401 1400 1400 1400 1400 1400 1401 1402 1403 1404 1405 1406 1406 1407 1408 1408 1409 1409 1410 1410 1411 1411 1411 1411 1411 1411 1410 1409
1403 1403 1402 1402 1402 1401 1401 1400 1400 1399 1399 1399 1399 1398 1398 1398 1398 1398 1398 1398 1399 1399 1400 1400 1401 1402 1403 1404 1405 1406 1406 1407 1408 1408 1409 1409 1409 1410 1410 1410 1409 1409 1409 1408
1400 1400 1400 1400 1399 1399 1398 1398 1397 1396 1396 1396 1396 1396 1395 1396 1396 1396 1396 1397 1397 1398 1398 1399 1400 1401 1402 1403 1403 1404 1405 1406 1406 1407 1407 1408 1408 1408 1408 1408 1408 1408 1407 1407
1398 1398 1397 1397 1396 1396 1395 1394 1394 1394 1393 1393 1393 1393 1393 1393 1394 1394 1394 1395 1396 1396 1397 1398 1398 1399 1400 1401 1402 1403 1403 1404 1405 1405 1406 1406 1407 1407 1407 1407 1407 1406 1406 1405
1396 1395 1395 1394 1394 1393 1392 1392 1391 1391 1391 1391 1391 1391 1391 1391 1392 1393 1393 1394 1394 1395 1395 1396 1397 1398 1399 1400 1400 1401 1402 1403 1403 1404 1405 1405 1405 1406 1406 1406 1405 1405 1405 1404
1394 1393 1392 1391 1391 1390 1390 1390 1389 1389 1389 1389 1389 1389 1390 1390 1390 1391 1391 1392 1393 1393 1394 1395 1396 1397 1398 1398 1399 1400 1400 1401 1402 1403 1403 1404 1404 1404 1404 1404 1404 1404 1403 1403
1391 1391 1390 1389 1389 1388 1388 1387 1387 1387 1387 1387 1387 1387 1388 1388 1389 1389 1390 1391 1391 1392 1393 1394 1395 1395 1396 1397 1398 1398 1399 1400 1400 1401 1401 1402 1402 1403 1403 1403 1403 1402 1402 1402
1389 1388 1388 1387 1386 1386 1386 1385 1385 1385 1385 1385 1385 1386 1386 1387 1387 1388 1389 1389 1390 1391 1392 1393 1393 1394 1395 1396 1396 1397 1398 1398 1399 1399 1400 1400 1401 1401 1401 1401 1401 1401 1400 1400